TimeCDT,TemperatureF,Dew PointF,Humidity,Sea Level PressureIn,VisibilityMPH,Wind Direction,Wind SpeedMPH,Gust SpeedMPH,PrecipitationIn,Events,Conditions,WindDirDegrees,DateUTC
12:53 AM,73.9,62.1,66,29.71,10.0,South,10.4,20.7,0.01,Rain,Light Rain,190,2013-04-11 05:53:00
1:53 AM,72.0,63.0,73,29.69,10.0,South,10.4,17.3,0.03,Thunderstorm,Thunderstorm,190,2013-04-11 06:53:00
2:43 AM,66.2,64.4,94,29.74,1.8,West,11.5,21.9,0.29,Rain-Thunderstorm,Heavy Thunderstorms and Rain,260,2013-04-11 07:43:00
2:53 AM,66.0,64.0,93,29.73,2.0,WSW,12.7,-,0.43,Rain-Thunderstorm,Heavy Thunderstorms and Rain,240,2013-04-11 07:53:00
3:16 AM,66.2,64.4,94,29.74,2.0,SW,10.4,-,0.23,Rain-Thunderstorm,Heavy Thunderstorms and Rain,230,2013-04-11 08:16:00
3:26 AM,64.4,64.4,100,29.72,1.5,WSW,4.6,-,0.41,Rain-Thunderstorm,Heavy Thunderstorms and Rain,250,2013-04-11 08:26:00
3:34 AM,64.4,64.4,100,29.73,2.0,SSE,9.2,-,0.49,Rain-Thunderstorm,Heavy Thunderstorms and Rain,160,2013-04-11 08:34:00
3:44 AM,64.4,64.4,100,29.73,5.0,South,6.9,-,0.53,Rain-Thunderstorm,Thunderstorms and Rain,180,2013-04-11 08:44:00
3:53 AM,64.9,64.0,97,29.73,7.0,South,5.8,-,0.54,Rain-Thunderstorm,Rain,190,2013-04-11 08:53:00
4:22 AM,64.4,64.4,100,29.75,5.0,South,5.8,-,0.10,Rain,Rain,170,2013-04-11 09:22:00
4:39 AM,64.4,64.4,100,29.73,2.5,Calm,Calm,-,0.25,Rain,Heavy Rain,0,2013-04-11 09:39:00
4:48 AM,64.4,64.4,100,29.74,4.0,SSE,5.8,-,0.27,Rain,Rain,160,2013-04-11 09:48:00
4:53 AM,64.9,64.0,97,29.69,5.0,Calm,Calm,-,0.29,Rain,Rain,0,2013-04-11 09:53:00
5:08 AM,64.4,64.4,100,29.71,6.0,SE,5.8,-,0.03,Rain,Rain,130,2013-04-11 10:08:00
5:25 AM,64.4,64.4,100,29.72,2.5,SE,4.6,-,0.14,Rain-Thunderstorm,Heavy Thunderstorms and Rain,140,2013-04-11 10:25:00
5:38 AM,64.4,64.4,100,29.73,3.0,Variable,3.5,-,0.23,Rain,Heavy Rain,0,2013-04-11 10:38:00
5:48 AM,64.4,64.4,100,29.72,4.0,Calm,Calm,-,0.27,Rain,Rain,0,2013-04-11 10:48:00
5:53 AM,66.9,64.0,90,29.70,4.0,Calm,Calm,-,0.29,Rain,Rain,0,2013-04-11 10:53:00
6:53 AM,64.9,63.0,93,29.71,5.0,South,4.6,-,0.28,Rain-Thunderstorm,Rain,170,2013-04-11 11:53:00
7:13 AM,64.4,62.6,94,29.72,5.0,SSE,5.8,-,0.08,Rain,Rain,150,2013-04-11 12:13:00
7:39 AM,64.4,62.6,94,29.71,3.0,SSE,4.6,-,0.18,Rain,Rain,160,2013-04-11 12:39:00
7:53 AM,64.0,63.0,96,29.70,3.0,ESE,5.8,-,0.24,Rain,Rain,120,2013-04-11 12:53:00
7:57 AM,64.4,62.6,94,29.72,5.0,SSE,4.6,-,0.01,Rain-Thunderstorm,Thunderstorms and Rain,150,2013-04-11 12:57:00
8:21 AM,64.4,62.6,94,29.73,4.0,SSE,4.6,-,0.11,Rain-Thunderstorm,Thunderstorms and Rain,160,2013-04-11 13:21:00
8:33 AM,64.4,62.6,94,29.74,3.0,Calm,Calm,-,0.16,Rain,Rain,0,2013-04-11 13:33:00
8:35 AM,64.4,62.6,94,29.75,2.0,Variable,5.8,-,0.17,Rain,Heavy Rain,0,2013-04-11 13:35:00
8:39 AM,62.6,60.8,94,29.75,1.0,WNW,11.5,17.3,0.27,Rain,Rain,300,2013-04-11 13:39:00
8:53 AM,57.9,55.9,93,29.73,2.0,NW,5.8,-,0.36,Rain,Heavy Rain,310,2013-04-11 13:53:00
9:22 AM,57.2,55.4,94,29.75,5.0,WNW,6.9,-,0.09,Rain,Rain,290,2013-04-11 14:22:00
9:32 AM,57.2,55.4,94,29.75,3.0,WNW,4.6,-,0.15,Rain,Heavy Rain,300,2013-04-11 14:32:00
9:39 AM,57.2,55.4,94,29.75,2.5,NW,5.8,-,0.19,Rain,Heavy Rain,310,2013-04-11 14:39:00
9:48 AM,55.4,55.4,100,29.72,3.0,NNW,10.4,-,0.24,Rain,Heavy Rain,330,2013-04-11 14:48:00
9:53 AM,55.9,55.0,97,29.72,3.0,NNW,6.9,-,0.27,Rain,Heavy Rain,330,2013-04-11 14:53:00
10:02 AM,55.4,55.4,100,29.73,5.0,NW,6.9,-,0.01,Rain,Light Rain,310,2013-04-11 15:02:00
10:10 AM,55.4,53.6,94,29.73,10.0,West,6.9,-,0.02,Rain,Light Rain,280,2013-04-11 15:10:00
10:50 AM,55.4,53.6,94,29.77,4.0,West,9.2,-,0.08,Rain,Rain,280,2013-04-11 15:50:00
10:53 AM,55.0,53.1,93,29.75,4.0,West,8.1,-,0.10,Rain,Rain,280,2013-04-11 15:53:00
11:01 AM,55.4,53.6,94,29.74,3.0,WNW,6.9,-,0.03,Rain,Rain,300,2013-04-11 16:01:00
12:46 PM,51.8,50.0,94,29.71,4.0,North,10.4,-,0.21,Rain,Rain,350,2013-04-11 17:46:00
12:53 PM,51.1,50.0,96,29.71,4.0,NNW,11.5,-,0.23,Rain-Thunderstorm,Rain,330,2013-04-11 17:53:00
1:12 PM,51.8,50.0,94,29.75,4.0,West,4.6,-,0.05,Rain,Rain,280,2013-04-11 18:12:00
1:26 PM,51.8,50.0,94,29.73,3.0,Calm,Calm,-,0.09,Rain,Rain,0,2013-04-11 18:26:00
1:53 PM,51.1,48.9,92,29.72,3.0,WNW,5.8,-,0.17,Rain,Rain,290,2013-04-11 18:53:00
2:10 PM,51.8,48.2,88,29.72,4.0,West,5.8,-,0.05,Rain,Rain,260,2013-04-11 19:10:00
2:19 PM,51.8,48.2,88,29.70,5.0,West,3.5,-,0.06,Rain,Rain,280,2013-04-11 19:19:00
2:53 PM,51.1,48.9,92,29.67,4.0,Calm,Calm,-,0.13,Rain,Rain,0,2013-04-11 19:53:00
3:28 PM,51.8,50.0,94,29.69,5.0,WSW,5.8,-,0.07,Rain,Rain,240,2013-04-11 20:28:00
3:37 PM,51.8,50.0,94,29.69,7.0,WNW,8.1,-,0.08,Rain,Light Rain,290,2013-04-11 20:37:00
3:53 PM,51.1,48.9,92,29.67,10.0,WNW,8.1,-,0.08,Rain,Light Rain,300,2013-04-11 20:53:00
4:53 PM,50.0,48.0,93,29.65,10.0,NNE,5.8,-,0.00,,Overcast,20,2013-04-11 21:53:00
5:53 PM,50.0,46.9,89,29.69,10.0,WNW,11.5,-,N/A,,Overcast,290,2013-04-11 22:53:00
6:53 PM,48.9,46.0,90,29.71,10.0,West,13.8,-,N/A,,Overcast,280,2013-04-11 23:53:00
7:53 PM,48.0,44.1,86,29.73,10.0,West,13.8,-,N/A,,Overcast,280,2013-04-12 00:53:00
8:53 PM,48.0,44.1,86,29.74,10.0,West,6.9,-,N/A,,Overcast,280,2013-04-12 01:53:00
9:07 PM,48.2,44.6,87,29.75,10.0,West,9.2,-,N/A,,Overcast,270,2013-04-12 02:07:00
9:53 PM,46.0,43.0,89,29.76,10.0,West,4.6,-,N/A,,Mostly Cloudy,270,2013-04-12 02:53:00
10:53 PM,44.1,42.1,93,29.78,10.0,WSW,5.8,-,N/A,,Clear,250,2013-04-12 03:53:00
11:53 PM,44.1,41.0,89,29.79,10.0,West,5.8,-,N/A,,Clear,260,2013-04-12 04:53:00